[[{"header":{"parameterUnit":"m.s-1","parameterCategory":1,"la1":30.2991,"la2":30.254,"lo1":-89.0895,"lo2":-89.0444,"dy":0.0017,"dx":0.0017,"nx":28,"ny":28,"refTime":"2024-02-22T03:00:00:Z","depth":0,"parameterNumber":2,"parameterNumberName":"U-component_of_WINDS"},"data":[0,0,0,0,0,0,0,0,0,0,0,0,0,0,0,0,0,0,0,0,0,0,0,0,0,0,0,0,0,0,0,0,0,0,0,0,0,0,0,0,0,0,0,0,0,0,0,0,0,0,0,0,0,0,0,0,0,0,2.1452,2.1452,0,2.1457,2.1457,2.1457,2.1439,2.1438,2.1438,2.1437,2.1441,2.1442,2.1443,0,0,0,0,0,0,0,0,0,0,0,0,0,2.1428,2.1428,2.1452,2.1452,2.1453,2.1457,2.1457,2.1457,2.1439,2.1438,2.1438,2.1437,2.1441,2.1442,2.1443,0,0,0,0,0,0,0,0,0,0,0,0,0,2.1436,2.1429,2.1452,2.1444,2.1443,2.1457,2.1457,2.1457,2.1439,2.1438,2.1438,2.1437,2.1441,2.1442,2.1443,2.1464,0,0,2.1446,2.1446,0,0,0,0,0,0,0,0,2.1436,2.1437,2.1445,2.1445,2.1444,2.1447,2.145,2.1459,2.1439,2.1441,2.1437,2.1437,2.1444,2.1444,2.1447,2.1464,2.1465,2.1446,2.1446,2.1447,2.1447,0,0,0,0,0,0,0,2.1435,2.1437,2.1454,2.1445,2.1445,2.144,2.144,2.1452,2.1447,2.1441,2.1439,2.144,2.1443,2.1446,2.1447,2.1465,2.1446,2.1446,2.1447,2.1447,2.1501,2.1502,0,0,0,0,0,0,2.1436,2.1436,2.1454,2.1454,2.1438,2.1441,2.1441,2.1447,2.1447,2.1446,2.1441,2.1439,2.1445,2.1446,2.1447,2.1473,2.1447,2.1447,2.1448,2.15,2.1501,2.1502,0,0,0,0,0,0,2.1435,2.1437,2.1454,2.1445,2.1447,2.1442,2.1448,2.1447,2.145,2.1447,2.1446,2.1445,2.1444,2.1446,2.146,2.1473,2.1448,2.1449,2.1499,2.15,2.1502,2.1524,0,0,0,0,0,0,2.1435,2.1437,2.1446,2.1445,2.1447,2.1467,2.1449,2.1448,2.1452,2.145,2.145,2.1449,2.1444,2.1459,2.1461,2.1473,2.1449,2.1498,2.15,2.1501,2.1522,2.1526,2.1529,0,0,0,0,0,2.1434,2.1451,2.1446,2.1448,2.1457,2.1468,2.1469,2.1463,2.1453,2.1461,2.1459,2.1449,2.1471,2.1461,2.1463,2.1476,2.1497,2.1499,2.1501,2.1521,2.1525,2.1529,0,0,0,0,0,0,2.1453,2.1451,2.1445,2.1463,2.1466,2.1465,2.1475,2.1468,2.1473,2.1471,2.1462,2.1463,2.1479,2.1479,2.1467,2.1497,2.1482,2.1485,2.1497,2.1501,2.1504,2.1504,2.145,0,0,0,0,0,2.1459,2.1468,2.1466,2.1482,2.1484,2.1479,2.1484,2.1479,2.1481,2.1482,2.1481,2.1483,2.1491,2.1496,2.1502,2.1522,2.1522,2.1532,2.1535,2.1538,2.1541,2.1552,2.1557,2.1509,2.1508,2.1508,0,0,2.1472,2.1472,2.1478,2.1486,2.1487,2.1497,2.148,2.1491,2.1498,2.1483,2.1497,2.1497,2.1499,2.1517,2.1524,2.1517,2.1554,2.1541,2.1543,2.1544,2.1555,2.1559,2.1563,2.151,2.151,2.1509,0,0,2.1501,2.1502,2.1516,2.1518,2.152,2.1517,2.1521,2.1521,2.152,2.1534,2.1524,2.1532,2.1544,2.1547,2.155,2.158,2.1572,2.1582,2.1601,2.1612,2.1616,2.1619,2.163,2.1635,2.1585,2.1585,2.1585,0,2.1516,2.153,2.1524,2.1535,2.1539,2.1527,2.1541,2.1543,2.1548,2.1551,2.1542,2.1559,2.1559,2.1578,2.1585,2.1587,2.1591,2.1582,2.1616,2.1619,2.1622,2.1633,2.1637,2.1586,2.1586,2.1586,2.1586,0,2.155,2.156,2.1571,2.1577,2.1582,2.1594,2.1589,2.1595,2.159,2.1588,2.1602,2.1603,2.161,2.1613,2.1608,2.1631,2.1627,2.1617,2.1602,2.1628,2.1638,2.1642,2.1588,2.1587,2.1587,2.1587,0,0,2.159,2.1593,2.1597,2.16,2.1602,2.1609,2.1622,2.1629,2.1634,2.1638,2.1648,2.166,2.1651,2.1654,2.1649,2.1659,2.1684,2.1648,2.1648,2.1655,2.171,2.1718,2.1723,2.1678,2.1679,2.1679,2.171,0,2.1619,2.1641,2.1635,2.1657,2.1667,2.1655,2.1666,2.1669,2.1667,2.1675,2.1673,2.1682,2.1669,2.1671,2.168,2.1679,2.1695,2.1676,2.1688,2.1689,2.1688,2.1728,2.1736,2.1765,2.1714,2.1715,2.1715,0,2.1655,2.1661,2.1684,2.1686,2.169,2.17,2.1706,2.1714,2.1716,2.1715,2.1719,2.1712,2.1724,2.1709,2.1726,2.1714,2.1718,2.1718,2.1719,2.172,2.1704,2.1731,2.1774,2.1778,2.1721,2.1721,2.172,0,2.1683,2.1697,2.1713,2.1715,2.1717,2.1725,2.1726,2.1728,2.1733,2.1739,2.1742,2.1748,2.1752,2.1758,2.1753,2.1742,2.1771,2.1755,2.177,2.177,2.1777,2.1776,2.1822,2.1779,2.1779,2.1779,2.1778,0,2.1716,2.1731,2.1725,2.1735,2.1751,2.1745,2.1761,2.1761,2.1763,2.1772,2.1763,2.1772,2.1764,2.1773,2.1769,2.1784,2.1786,2.1785,2.1784,2.1786,2.1786,2.1789,2.1787,2.178,2.1779,2.1779,2.1779,0,2.175,2.1747,2.1764,2.1765,2.1765,2.1777,2.1778,2.1787,2.1785,2.1797,2.18,2.1797,2.1806,2.1802,2.1811,2.1809,2.1828,2.1824,2.1828,2.1827,2.1842,2.1841,2.1891,2.1897,2.185,2.185,2.1851,0,2.1772,2.1783,2.1785,2.1791,2.1794,2.1803,2.1808,2.1803,2.1808,2.1813,2.1822,2.183,2.1837,2.1853,2.1851,2.1859,2.1855,2.1872,2.1856,2.1858,2.1856,2.1855,2.1857,2.1875,2.1876,2.1876,2.1877,0,2.181,2.1808,2.1816,2.1825,2.1831,2.1837,2.1842,2.1847,2.1842,2.1849,2.1859,2.1864,2.1874,2.1883,2.189,2.1891,2.1883,2.1882,2.1886,2.1888,2.189,2.189,2.1837,2.1881,2.188,2.188,2.188,2.188,2.1839,2.1848,2.1852,2.1862,2.1865,2.187,2.1879,2.1879,2.1887,2.1895,2.1891,2.1903,2.1906,2.1914,2.1917,2.1926,2.1919,2.1924,2.1926,2.1927,2.193,2.1888,2.1927,2.1927,2.1927,2.1926,2.1926,0,2.1877,2.1879,2.1888,2.1896,2.1904,2.1896,2.1901,2.1908,2.1919,2.1923,2.193,2.1942,2.1951,2.195,2.1958,2.1965,2.1962,2.1968,2.1967,2.1968,2.1935,2.1931,2.197,2.197,2.197,2.197,2.197,2.197,2.1898,2.1915,2.1913,2.1931,2.1933,2.1945,2.1949,2.1954,2.1957,2.1971,2.1978,2.1978,2.198,2.1988,2.1996,2.1996,2.2,2.2007,2.2005,2.1974,2.197,2.1966,2.1962,2.2007,2.2008,2.2037,2.2037,2.2038]},{"header":{"parameterUnit":"m.s-1","parameterCategory":1,"la1":30.2991,"la2":30.254,"lo1":-89.0895,"lo2":-89.0444,"dy":0.0017,"dx":0.0017,"nx":28,"ny":28,"refTime":"2024-02-22T03:00:00:Z","depth":0,"parameterNumber":3,"parameterNumberName":"V-component_of_WINDS"},"data":[0,0,0,0,0,0,0,0,0,0,0,0,0,0,0,0,0,0,0,0,0,0,0,0,0,0,0,0,0,0,0,0,0,0,0,0,0,0,0,0,0,0,0,0,0,0,0,0,0,0,0,0,0,0,0,0,0,0,5.1779,5.1781,0,5.1893,5.1894,5.1895,5.1917,5.1916,5.1915,5.1914,5.2029,5.2033,5.2037,0,0,0,0,0,0,0,0,0,0,0,0,0,5.1583,5.1586,5.1779,5.1781,5.1782,5.1892,5.1894,5.1895,5.1917,5.1916,5.1915,5.1914,5.2028,5.2033,5.2037,0,0,0,0,0,0,0,0,0,0,0,0,0,5.1679,5.1587,5.1779,5.1806,5.181,5.1892,5.1894,5.1896,5.1917,5.1916,5.1914,5.1913,5.2027,5.2032,5.2038,5.2101,0,0,5.2056,5.2059,0,0,0,0,0,0,0,0,5.1674,5.1686,5.1801,5.1804,5.1809,5.1889,5.1867,5.1965,5.1917,5.1876,5.1914,5.1912,5.1984,5.1993,5.2017,5.2107,5.2112,5.2056,5.206,5.2063,5.2064,0,0,0,0,0,0,0,5.1667,5.1682,5.1824,5.1802,5.1807,5.1813,5.1825,5.1886,5.1936,5.188,5.1882,5.1895,5.1986,5.2012,5.202,5.2113,5.2056,5.2062,5.2065,5.2067,5.2263,5.2265,0,0,0,0,0,0,5.1656,5.1676,5.1821,5.1827,5.1736,5.1818,5.1831,5.1865,5.1936,5.1945,5.1896,5.1895,5.2002,5.2013,5.2024,5.2105,5.2063,5.2068,5.2071,5.2262,5.2264,5.2266,0,0,0,0,0,0,5.1651,5.1668,5.1816,5.1752,5.1772,5.1822,5.186,5.1868,5.1894,5.1948,5.1957,5.1913,5.2002,5.2016,5.2083,5.2109,5.2071,5.2076,5.226,5.2262,5.2265,5.2266,0,0,0,0,0,0,5.1645,5.1666,5.1691,5.1753,5.1775,5.1872,5.1861,5.1871,5.1904,5.1904,5.1966,5.1975,5.2002,5.2074,5.2089,5.2117,5.2081,5.2258,5.2261,5.2264,5.2264,5.2268,5.2272,0,0,0,0,0,5.1638,5.1686,5.1692,5.1709,5.1806,5.1874,5.1886,5.1916,5.1906,5.1931,5.1966,5.1973,5.2104,5.208,5.2097,5.2128,5.2256,5.226,5.2264,5.2262,5.2267,5.2272,0,0,0,0,0,0,5.1625,5.1694,5.1702,5.177,5.1816,5.1877,5.191,5.192,5.1969,5.1968,5.2002,5.2016,5.2082,5.2111,5.2084,5.2194,5.2179,5.2187,5.2172,5.2178,5.2182,5.2174,5.2085,0,0,0,0,0,5.163,5.1679,5.1737,5.1792,5.1815,5.1858,5.1889,5.1908,5.1956,5.1975,5.2015,5.2062,5.2114,5.2147,5.2198,5.2268,5.2283,5.2297,5.2301,5.2304,5.2311,5.2352,5.236,5.2278,5.2278,5.2278,0,0,5.1641,5.1685,5.1713,5.179,5.1828,5.1879,5.1874,5.1927,5.1966,5.1983,5.205,5.2081,5.2135,5.2205,5.2237,5.2231,5.2337,5.2309,5.2311,5.2316,5.2357,5.2365,5.2372,5.2281,5.228,5.228,0,0,5.1687,5.1724,5.1776,5.1814,5.1871,5.19,5.1912,5.1973,5.1994,5.2061,5.2076,5.2122,5.221,5.2249,5.2281,5.2344,5.2353,5.2359,5.2381,5.2422,5.2428,5.2434,5.2459,5.2467,5.2365,5.2365,5.2365,0,5.1693,5.177,5.18,5.1854,5.1888,5.1908,5.1961,5.1996,5.2067,5.209,5.2083,5.2195,5.2233,5.2313,5.2329,5.2353,5.2369,5.2353,5.2425,5.2431,5.2437,5.2461,5.247,5.2366,5.2366,5.2366,5.2366,0,5.1776,5.1829,5.1863,5.1933,5.1971,5.2023,5.2063,5.2098,5.2114,5.2144,5.2213,5.226,5.2321,5.2341,5.2357,5.2424,5.2419,5.2418,5.2404,5.2445,5.2468,5.2477,5.2367,5.2366,5.2366,5.2366,0,0,5.1816,5.1903,5.1915,5.1948,5.2013,5.2055,5.211,5.2171,5.2201,5.2249,5.2297,5.2372,5.2372,5.2407,5.2427,5.2462,5.2513,5.2457,5.2459,5.2467,5.2592,5.2594,5.2604,5.2519,5.252,5.2522,5.2588,0,5.1871,5.1969,5.2,5.2082,5.2133,5.2153,5.22,5.2246,5.2276,5.2324,5.2357,5.241,5.2405,5.2427,5.2462,5.2499,5.2538,5.2494,5.2564,5.2566,5.2552,5.2616,5.2618,5.2678,5.2597,5.2599,5.26,0,5.1949,5.2,5.2088,5.2149,5.2172,5.2214,5.2274,5.2318,5.2371,5.2391,5.2432,5.245,5.2508,5.2491,5.2573,5.2542,5.2573,5.2595,5.2598,5.2607,5.2586,5.2628,5.2697,5.2707,5.2614,5.2613,5.2612,0,5.1972,5.2063,5.2128,5.2155,5.2227,5.2257,5.2289,5.2341,5.2376,5.2428,5.2451,5.2509,5.2541,5.2585,5.2619,5.2602,5.2699,5.2683,5.2718,5.2717,5.2738,5.2737,5.2815,5.2755,5.2755,5.2755,5.2754,0,5.2032,5.2085,5.214,5.218,5.2241,5.2275,5.2335,5.2367,5.2414,5.2461,5.2481,5.2525,5.2566,5.2616,5.2642,5.2708,5.2721,5.2739,5.2746,5.2739,5.2737,5.276,5.2757,5.2757,5.2756,5.2756,5.2756,0,5.2068,5.2107,5.2179,5.2243,5.226,5.2302,5.2357,5.2397,5.2428,5.2488,5.2504,5.2553,5.2613,5.2651,5.2726,5.2744,5.2817,5.2821,5.2799,5.2803,5.2836,5.2833,5.2933,5.2949,5.2877,5.2877,5.2878,0,5.2105,5.2147,5.2215,5.2249,5.2281,5.2334,5.2371,5.2407,5.2445,5.2509,5.2542,5.2604,5.2655,5.275,5.2792,5.2851,5.2858,5.2889,5.2867,5.2859,5.2861,5.2858,5.2864,5.2893,5.2894,5.2894,5.2894,0,5.2166,5.2183,5.2235,5.2295,5.2339,5.2387,5.2436,5.2462,5.2507,5.2548,5.261,5.265,5.2728,5.2789,5.2852,5.2885,5.2898,5.2901,5.2913,5.2906,5.2893,5.2902,5.2811,5.2899,5.2898,5.2898,5.2898,5.2898,5.2205,5.2244,5.2299,5.2357,5.2398,5.2443,5.2485,5.2522,5.2574,5.2642,5.2659,5.2725,5.2779,5.2864,5.2899,5.2951,5.2947,5.2963,5.2967,5.2971,5.2973,5.2883,5.2962,5.2962,5.2962,5.2962,5.2962,0,5.2269,5.2306,5.2359,5.2427,5.2473,5.2481,5.2536,5.2574,5.2632,5.2681,5.2732,5.2804,5.2864,5.2912,5.2974,5.3006,5.3014,5.3021,5.302,5.3028,5.2972,5.2957,5.3014,5.3014,5.3014,5.3014,5.3014,5.3014,5.2308,5.2375,5.2399,5.2488,5.2524,5.2589,5.262,5.2662,5.2702,5.2782,5.2833,5.2863,5.2913,5.2979,5.3035,5.3047,5.307,5.3077,5.3091,5.3037,5.3032,5.3026,5.3012,5.3081,5.3081,5.3143,5.3143,5.3144]}]]